Probability
0 0 0 0 0 0 0 0 0 0 0 0 0 0 0 0 0 0 0 0 0 0 0 0 0 0 0 0 0 0 0 0 0 0 0 0 0 0 0 0 0 0 0 0 0 0 0 0 0
0 0 0 0 0 0 0 0 0 0 0 0 0 0 0 0 0 0 0 0 0 0 0 0 0 0 0 0 0 0 0 0 0 0 0 0 0 0 0 0 0 0 0 0 0 0 0 0 0
0 0 0 0 0 0 0 0 0 0 0 0 0 0 0 0 0 0 0 0 0 0 0 0 0 0 0 0 0 0 0 0 0 0 0 0 0 0 0 0 0 0 0 0 0 0 0 0 0
0 0 0 0 0 0 0 0 0 0 0 0 0 0 0 0 0 0 0 0 0 0 0 0 0 0 0 0 0 0 0 0 0 0 0 0 0 0 0 0 0 0 0 0 0 0 0 0 0
0 0 0 0 0 0 0 0 0 0 0 0 0 0 0 0 0 0 0 0 0 0 0 0 0 0 0 0 0 0 0 0 0 0 0 0 0 0 0 0 0 0 0 0 0 0 0 0 0
0 0 0 0 0 0 0 0 0 0 0 0 0 0 0 0 0 0 0 0 0 0 0 0 0 0 0 0 0 0 0 0 0 0 0 0 0 0 0 0 0 0 0 0 0 0 0 0 0
0 0 0 0 0 0 0 0 0 0 0 0 0 0 0 0 0 0 0 0 0 0 0 0 0 0 0 0 0 0 0 0 0 0 0 0 0 0 0 0 0 0 0 0 0 0 0 0 0
0 0 0 0 0 0 0 0 0 0 0 0 0 0 0 0 0 0 0 0 0 0 0 0 0 0 0 0 0 0 0 0 0 0 0 0 0 0 0 0 0 0 0 0 0 0 0 0 0
0 0 0 0 0 0 0 0 0 0 0 0 0 0 0 0 0 0 0 0 0 0 0 0 0 0 0 0 0 0 0 0 0 0 0 0 0 0 0 0 0 0 0 0 0 0 0 0 0
0 0 0 0 0 0 0 0 0 0 0 0 0 0 0 0 0 0 0 0 0 0 0 0 0 0 0 0 0 0 0 0 0 0 0 0 0 0 0 0 0 0 0 0 0 0 0 0 0
0 0 0 0 0 0 0 0 0 0 0 0 0 0 0 0 0 0 0 0 0 0 0 0 0 0 0 0 0 0 0 0 0 0 0 0 0 0 0 0 0 0 0 0 0 0 0 0 0
0 0 0 0 0 0 0 0 0 0 0 0 0 0 0 0 0 0 0 0 0 0 0 0 0 0 0 0 0 0 0 0 0 0 0 0 0 0 0 0 0 0 0 0 0 0 0 0 0
0 0 0 0 0 0 0 0 0 0 0 0 0 0 0 0 0 0 0 0 0 0 0 0 0 0 0 0 0 0 0 0 0 0 0 0 0 0 0 0 0 0 0 0 0 0 0 0 0
0 0 0 0 0 0 0 0 0 0 0 0 0 0 0 0 0 0 0 0 0 0 0 0 0 0 0 0 0 0 0 0 0 0 0 0 0 0 0 0 0 0 0 0 0 0 0 0 0
0 0 0 0 0 0 0 0 0 0 0 0 0 0 0 0 0 0 0 0 0 0 0 0 0 0 0 0 0 0 0 0 0 0 0 0 0 0 0 0 0 0 0 0 0 0 0 0 0
0 0 0 0 0 0 0 0 0 0 0 0 0 0 0 0 0 0 0 0 0 0 0 0 0 0 0 0 0 0 0 0 0 0 0 0 0 0 0 0 0 0 0 0 0 0 0 0 0
0 0 0 0 0 0 0 0 0 0 0 0 0 0 0 0 0 0 0 0 0 0 0 0 0 0 0 0 0 0 0 0 0 0 0 0 0 0 0 0 0 0 0 0 0 0 0 0 0
0 0 0 0 0 0 0 0 0 0 0 0 0 0 0 0 0 0 0 0 0 0 0 0 0 0 0 0 0 0 0 0 0 0 0 0 0 0 0 0 0 0 0 0 0 0 0 0 0
0 0 0 0 0 0 0 0 0 0 0 0 0 0 0 0 0 0 0 0 0 0 0 0 0 0 0 0 0 0 0 0 0 0 0 0 0 0 0 0 0 0 0 0 0 0 0 0 0
0 0 0 0 0 0 0 0 0 0 0 0 0 0 0 0 0 0 0 0 0 0 0 0 0 0 0 0 0 0 0 0 0 0 0 0 0 0 0 0 0 0 0 0 0 0 0 0 0
0 0 0 0 0 0 0 0 0 0 0 0 0 0 0 0 0 0 0 0 0 0 0 0 0 0 0 0 0 0 0 0 0 0 0 0 0 0 0 0 0 0 0 0 0 0 0 0 0
0 0 0 0 0 0 0 0 0 0 0 0 0 0 0 0 0 0 0 0 0 0 0 0 0 0 0 0 0 0 0 0 0 0 0 0 0 0 0 0 0 0 0 0 0 0 0 0 0
0 0 0 0 0 0 0 0 0 0 0 0 0 0 0 0 0 0 0 0 0 0 0 0 0 0 0 0 0 0 0 0 0 0 0 0 0 0 0 0 0 0 0 0 0 0 0 0 0
0 0 0 0 0 0 0 0 0 0 0 0 0 0 0 0 0 0 0 0 0 0 0 0 0 0 0 0 0 0 0 0 0 0 0 0 0 0 0 0 0 0 0 0 0 0 0 0 0
0 0 0 0 0 0 0 0 0 0 0 0 0 0 0 0 0 0 0 0 0 0 0 0 0 0 0 0 0 0 0 0 0 0 0 0 0 0 0 0 0 0 0 0 0 0 0 0 0
0 0 0 0 0 0 0 0 0 0 0 0 0 0 0 0 0 0 0 0 0 0 0 0 0 0 0 0 0 0 1 1 1 0 0 0 0 0 0 0 0 0 0 0 0 0 0 0 0
0 0 0 0 0 0 0 0 0 0 0 0 0 0 0 0 0 0 0 0 0 0 0 0 0 0 0 1 1 1 2 2 2 1 0 0 0 0 0 0 0 0 0 0 0 0 0 0 0
0 0 0 0 0 0 0 0 0 0 0 0 0 0 0 0 0 0 0 0 0 0 0 0 0 0 0 1 2 2 2 2 2 1 0 0 0 0 0 0 0 0 0 0 0 0 0 0 0
0 0 0 0 0 0 0 0 0 0 0 0 0 0 0 0 0 0 0 0 0 0 0 0 0 0 0 1 1 1 1 1 1 0 0 0 0 0 0 0 0 0 0 0 0 0 0 0 0
0 0 0 0 0 0 0 0 0 0 0 0 0 0 0 0 0 0 0 0 0 0 0 0 0 0 0 0 0 0 0 0 0 0 0 0 0 0 0 0 0 0 0 0 0 0 0 0 0
Wind_Speed
12 5 2 4 7 6 0 2 2 2 1 1 2 4 6 5 4 2 1 6 9 8 7 9 12 13 13 13 12 12 12 12 13 12 12 13 13 13 14 13 13 13 14 14 14 14 14 14 14
5 3 5 6 6 2 3 3 3 3 4 4 3 3 3 1 1 4 4 5 9 9 7 8 11 13 13 13 12 11 11 12 12 12 12 12 12 13 13 13 12 12 12 13 13 13 12 12 13
4 4 5 5 4 4 3 3 4 1 3 3 3 2 2 2 3 5 4 8 8 7 7 8 12 13 13 13 12 11 11 11 11 11 11 11 11 12 12 12 11 11 11 11 12 11 11 11 11
4 5 6 5 1 3 4 3 3 3 2 2 4 3 0 0 4 4 8 9 9 7 7 9 12 13 13 12 12 11 11 11 11 11 11 10 11 11 11 11 10 10 10 10 10 10 10 10 10
5 5 5 2 2 3 3 2 3 3 3 2 4 4 1 3 2 8 10 9 10 7 6 8 11 11 12 12 12 11 11 11 10 10 10 10 10 10 10 10 10 9 9 9 9 9 8 8 8
5 5 3 1 3 3 2 1 3 2 2 3 5 4 1 1 5 8 9 8 8 8 7 7 10 10 10 10 10 10 10 10 10 10 10 9 9 9 9 9 9 9 8 8 8 7 7 7 7
4 4 3 3 2 2 2 1 3 4 3 5 6 5 1 2 5 7 7 7 7 7 7 6 6 7 9 10 9 9 9 9 9 9 9 8 7 8 7 7 8 8 8 7 6 6 5 5 5
4 4 2 2 3 3 2 1 2 4 3 3 5 6 5 5 7 7 7 6 7 7 7 6 6 5 5 6 8 9 9 8 8 8 8 7 7 6 6 5 5 7 7 6 5 4 4 4 4
3 3 4 5 5 3 1 1 1 1 4 2 1 2 2 9 10 10 7 7 8 8 7 7 7 6 5 5 7 7 8 8 8 7 8 7 4 3 3 4 4 5 5 5 5 4 3 2 3
3 4 7 5 4 3 1 2 1 2 2 1 1 0 4 10 13 13 11 12 12 11 10 7 8 7 6 5 4 4 4 4 4 4 5 4 3 3 3 4 4 4 4 4 4 3 1 2 1
3 6 4 3 2 2 2 1 1 4 4 6 6 5 8 10 11 13 12 12 12 10 10 9 8 8 7 5 4 3 3 3 4 5 5 4 3 2 2 1 2 2 2 1 1 1 0 0 0
3 3 3 2 1 1 2 2 2 4 6 3 4 7 10 13 15 15 14 12 10 10 10 10 9 8 8 6 5 5 4 4 4 5 5 4 3 3 3 2 2 2 2 2 1 1 1 1 2
5 4 4 4 3 2 2 3 3 6 5 1 3 8 12 14 13 11 9 8 9 11 11 11 10 10 9 8 6 6 6 5 5 5 5 5 4 4 4 3 3 3 2 3 2 2 3 3 3
5 4 4 4 4 3 4 5 3 8 3 2 5 8 11 13 12 9 9 11 12 12 12 10 11 11 10 9 8 7 6 6 6 6 6 7 5 5 5 4 4 4 4 4 3 4 3 3 3
2 2 5 5 5 4 2 8 9 8 3 4 6 8 9 10 9 11 12 12 13 11 10 11 12 11 11 11 10 7 6 6 7 7 7 8 7 6 6 5 5 5 4 4 3 3 3 3 3
3 3 7 6 6 5 6 13 8 6 6 7 7 7 8 10 11 11 11 10 10 9 10 11 10 12 13 11 9 7 7 7 7 6 7 9 9 8 6 6 6 5 4 4 4 4 3 4 4
4 8 10 6 6 5 8 11 7 5 6 8 8 8 9 9 10 11 11 11 11 11 10 11 11 12 13 11 8 8 7 8 7 7 7 8 9 9 7 6 5 5 5 5 5 5 4 4 5
8 7 7 8 4 6 9 11 8 5 7 9 9 8 9 11 14 12 11 11 11 10 10 11 11 12 10 8 6 6 7 8 7 8 8 9 8 9 8 6 6 6 5 6 5 6 5 4 4
6 6 8 6 4 6 12 14 13 9 7 9 10 10 10 12 12 9 9 9 9 9 10 12 12 12 9 7 8 9 10 9 8 8 9 10 10 10 9 7 7 7 7 7 7 6 6 5 3
8 9 8 4 4 6 9 14 12 12 11 11 12 12 12 11 9 8 8 8 10 11 11 11 12 12 12 11 8 6 5 5 6 6 8 10 11 11 9 10 8 8 7 8 8 7 5 4 5
14 13 11 6 2 4 5 11 12 11 10 10 10 11 11 12 12 10 8 9 9 10 12 11 13 13 13 11 5 3 3 2 4 7 8 10 11 11 11 11 9 8 9 8 9 9 9 7 5
16 11 9 8 5 6 5 11 10 10 11 12 13 11 12 11 11 10 9 8 9 11 10 11 11 11 11 11 9 10 10 10 10 7 6 7 9 10 11 10 10 10 9 9 9 9 8 8 7
7 6 9 9 8 9 7 10 10 6 12 13 13 13 12 11 11 10 10 10 9 9 8 9 9 9 10 11 13 12 12 10 6 4 5 6 7 9 10 10 10 10 10 10 9 9 10 9 9
4 2 2 5 7 16 16 13 12 9 12 9 9 10 10 10 10 10 9 7 6 6 6 6 7 8 8 10 11 12 13 11 7 7 7 6 5 6 9 10 10 10 10 10 10 10 11 10 10
8 7 6 8 10 13 9 12 14 8 9 11 10 10 9 9 9 8 7 6 6 5 6 6 7 7 7 8 9 10 11 10 10 8 7 6 5 6 8 9 9 9 10 10 9 10 11 11 11
13 14 11 9 8 6 6 14 11 6 7 7 8 8 8 8 8 8 7 7 6 5 5 6 7 7 7 8 8 8 8 6 6 7 5 6 6 6 6 7 8 9 9 9 9 9 10 9 11
10 12 9 5 4 6 8 8 9 4 6 7 7 7 8 8 8 8 6 5 5 4 5 6 6 6 6 7 7 7 7 6 6 5 5 4 4 4 4 5 7 8 8 9 9 8 10 9 10
9 8 6 10 10 12 9 9 9 6 8 8 8 9 10 8 7 5 4 3 3 4 3 4 5 6 5 5 5 4 5 6 5 4 4 4 4 3 3 4 5 6 7 7 8 8 8 9 10
10 11 9 7 8 10 10 11 7 10 10 10 11 9 8 7 5 3 2 2 2 2 2 2 3 3 3 4 4 4 4 4 4 3 4 4 3 3 3 4 5 6 6 6 7 8 7 9 9
10 13 13 11 10 8 8 11 3 6 6 6 7 6 5 4 3 2 1 1 1 1 1 2 2 3 3 3 3 3 3 3 3 3 3 2 2 2 3 3 3 4 4 5 6 7 7 8 9
Wind_Direction
332 343 52 53 54 53 111 249 208 182 186 101 124 140 151 156 168 192 121 141 136 141 147 145 144 139 136 133 131 129 126 123 120 116 114 113 111 109 107 106 106 105 104 103 101 98 94 93 91
325 354 48 57 81 82 271 250 204 201 163 130 90 100 111 140 109 124 137 153 141 141 142 145 143 142 141 139 136 133 129 126 125 122 120 118 117 115 113 111 110 110 110 107 104 101 97 96 94
345 46 71 71 104 172 216 223 201 156 143 138 104 82 137 169 162 167 168 146 135 137 139 145 145 146 146 144 141 138 134 132 131 129 125 124 123 119 117 116 115 116 114 111 107 104 100 96 95
35 39 53 73 151 220 224 228 177 131 122 105 126 112 80 79 176 169 142 140 136 138 140 149 149 151 150 148 147 144 142 140 137 134 130 129 128 125 123 123 123 122 119 115 110 107 102 98 97
53 67 58 46 274 272 259 238 165 152 162 137 133 138 166 347 117 134 140 144 146 143 143 153 153 153 154 153 152 151 149 146 143 138 134 133 133 132 131 131 131 129 125 120 115 110 104 100 100
51 64 91 213 267 294 288 191 154 154 153 144 137 141 193 35 137 147 146 147 150 149 148 154 154 154 157 158 157 156 154 151 148 144 141 141 141 142 140 140 139 136 133 129 122 115 111 106 104
98 102 166 193 230 282 283 167 169 163 170 193 161 140 225 179 163 147 141 139 147 150 151 153 155 158 162 162 161 160 157 155 153 150 145 144 144 145 144 144 147 148 145 141 133 121 117 113 108
119 114 157 196 199 241 269 202 186 167 181 141 145 154 208 190 149 135 131 142 154 160 163 161 158 158 161 163 166 164 161 159 156 151 146 145 143 141 143 146 154 160 158 154 148 135 125 116 109
95 106 198 206 195 228 238 158 346 112 124 133 198 207 222 137 139 141 148 165 174 179 179 174 170 168 165 166 171 168 167 167 159 154 153 144 135 135 139 157 165 169 167 167 166 160 136 99 87
114 178 215 207 193 203 207 179 190 108 131 190 231 34 116 141 157 167 176 182 187 190 190 185 182 178 173 174 165 165 166 165 160 156 154 147 147 153 155 174 183 183 180 183 187 188 148 90 60
171 198 220 224 206 188 193 228 199 150 204 211 202 181 154 164 174 184 189 191 194 193 192 192 189 184 181 177 170 171 168 166 167 168 166 157 154 158 159 160 181 188 191 189 207 210 121 132 194
196 227 223 234 219 192 204 203 218 202 219 213 204 167 170 179 189 195 197 196 191 193 199 196 192 190 189 184 182 182 182 183 186 184 176 167 169 179 182 185 189 187 186 195 201 206 229 241 245
213 231 239 246 242 235 226 224 230 244 251 281 147 160 183 192 201 205 204 198 195 201 203 199 194 196 192 190 192 193 194 195 194 190 190 185 184 190 192 196 198 201 195 199 210 221 234 246 253
215 222 251 246 236 229 223 254 228 250 227 171 171 189 200 204 206 202 203 205 205 208 207 200 199 199 196 198 199 199 198 197 196 199 199 196 195 193 193 200 203 208 205 204 207 218 230 244 249
171 232 272 244 222 226 195 263 229 234 186 206 213 215 217 221 215 213 212 211 211 211 206 203 203 199 201 203 203 202 200 198 203 205 203 202 201 198 198 202 209 211 206 207 213 224 232 248 250
154 205 244 239 205 202 181 248 246 222 201 225 228 226 226 229 225 227 223 220 215 211 207 207 204 202 205 206 204 204 202 203 209 207 206 207 207 202 200 207 214 206 200 205 215 220 231 242 247
197 219 230 247 208 187 199 244 247 207 199 228 233 230 230 236 238 234 227 222 217 213 210 207 205 205 206 206 204 205 203 207 210 208 210 209 208 205 206 212 212 197 202 211 217 219 219 239 246
201 213 223 222 218 193 220 243 253 234 215 231 236 235 233 235 238 234 228 225 220 215 210 210 208 208 204 200 200 205 211 214 213 212 213 208 208 206 209 215 210 198 208 216 216 224 220 231 243
199 208 225 225 203 204 231 245 252 247 238 240 241 238 236 239 244 242 231 225 219 213 209 209 208 206 195 194 201 207 216 216 215 216 212 208 208 206 210 216 211 206 215 220 215 217 224 230 203
225 232 236 250 215 218 248 254 251 241 231 229 234 237 238 241 250 246 235 220 214 214 213 212 211 206 200 203 201 199 197 207 214 212 212 210 210 208 211 216 216 210 216 220 217 213 220 220 185
225 226 225 227 272 251 276 271 246 246 233 235 234 234 236 233 238 241 235 225 218 218 216 214 213 209 206 202 182 171 169 184 199 212 217 215 211 211 214 216 217 215 215 225 222 216 220 230 209
231 219 216 217 217 243 216 269 253 236 243 238 237 235 238 237 236 236 231 227 221 223 218 214 213 210 206 195 191 193 202 213 218 214 214 210 208 214 216 217 217 220 221 227 225 218 222 225 231
216 187 202 217 225 247 219 253 263 210 237 240 235 234 235 235 232 232 230 228 226 223 216 211 207 207 202 197 200 202 213 222 221 204 207 210 210 213 216 218 220 223 225 228 225 220 220 223 230
177 140 198 211 221 242 224 228 261 205 221 232 230 230 233 233 233 236 237 232 231 222 211 206 201 207 202 196 200 205 213 217 214 211 214 216 214 215 218 220 223 227 228 229 229 226 225 226 229
180 183 214 219 221 239 199 218 250 210 209 215 223 227 229 230 231 234 233 230 229 221 209 201 196 206 200 195 199 206 212 213 214 217 218 215 216 219 223 219 225 229 232 233 229 229 230 227 228
198 197 206 216 224 249 198 227 249 213 218 222 222 225 228 229 231 231 228 224 222 218 207 197 194 199 196 193 199 205 208 209 216 218 217 217 223 227 225 219 226 230 232 233 231 232 234 233 232
188 212 215 227 249 257 239 253 284 236 230 228 227 227 231 232 232 229 226 219 214 210 209 200 192 193 192 192 193 196 200 204 211 214 213 218 227 231 223 222 229 232 232 233 233 236 236 234 235
192 173 182 211 224 240 244 236 239 213 220 225 225 226 234 237 235 230 220 216 209 201 204 195 190 190 191 186 190 193 200 205 210 205 209 221 230 232 228 228 232 237 237 235 234 240 241 239 239
186 196 201 209 212 219 246 251 220 210 207 212 221 225 227 231 231 222 222 214 193 181 176 179 182 181 180 182 183 184 191 199 202 204 218 226 231 231 234 238 239 240 243 242 240 242 244 245 248
207 206 202 213 226 221 239 256 230 207 209 210 224 230 227 223 218 204 194 183 162 170 176 176 177 176 182 178 169 172 174 176 186 207 228 231 236 242 246 250 251 252 251 250 249 253 250 248 251